Time,TemperatureF,DewpointF,PressureIn,WindDirection,WindDirectionDegrees,WindSpeedMPH,WindSpeedGustMPH,Humidity,HourlyPrecipIn,Conditions,Clouds,dailyrainin,SolarRadiationWatts/m^2,SoftwareType,DateUTC
2013-08-25 00:00:00,63.0,56.0,-100.00,SSE,157,1.0,-999.0,77,-99.99,,,-99.99,0.000000,,2013-08-25 04:00:00,
2013-08-25 00:44:00,63.0,56.0,-100.00,SSE,157,1.0,-999.0,77,-99.99,,,-99.99,0.000000,,2013-08-25 04:44:00,
2013-08-25 00:54:00,63.0,56.0,-100.00,SSE,157,1.0,-999.0,77,-99.99,,,-99.99,0.000000,,2013-08-25 04:54:00,
2013-08-25 01:00:00,65.0,56.0,-100.00,SSE,157,2.0,-999.0,71,-99.99,,,-99.99,0.000000,,2013-08-25 05:00:00,
2013-08-25 01:43:00,65.0,56.0,-100.00,SSE,157,2.0,-999.0,71,-99.99,,,-99.99,0.000000,,2013-08-25 05:43:00,
2013-08-25 01:52:00,65.0,56.0,-100.00,SSE,157,2.0,-999.0,71,-99.99,,,-99.99,0.000000,,2013-08-25 05:52:00,
2013-08-25 02:00:00,68.0,55.0,-100.00,South,180,5.0,-999.0,61,-99.99,,,-99.99,0.000000,,2013-08-25 06:00:00,
2013-08-25 02:43:00,68.0,55.0,-100.00,South,180,5.0,-999.0,61,-99.99,,,-99.99,0.000000,,2013-08-25 06:43:00,
2013-08-25 02:52:00,68.0,55.0,-100.00,South,180,5.0,-999.0,61,-99.99,,,-99.99,0.000000,,2013-08-25 06:52:00,
2013-08-25 03:00:00,70.0,54.0,-100.00,SSW,202,7.0,-999.0,58,-99.99,,,-99.99,0.000000,,2013-08-25 07:00:00,
2013-08-25 03:42:00,70.0,54.0,-100.00,SSW,202,7.0,-999.0,58,-99.99,,,-99.99,0.000000,,2013-08-25 07:42:00,
2013-08-25 03:52:00,70.0,54.0,-100.00,SSW,202,7.0,-999.0,58,-99.99,,,-99.99,0.000000,,2013-08-25 07:52:00,
2013-08-25 04:00:00,70.0,55.0,-100.00,SSW,202,7.0,-999.0,58,-99.99,,,-99.99,0.000000,,2013-08-25 08:00:00,
2013-08-25 04:42:00,70.0,55.0,-100.00,SSW,202,7.0,-999.0,58,-99.99,,,-99.99,0.000000,,2013-08-25 08:42:00,
2013-08-25 04:52:00,70.0,55.0,-100.00,SSW,202,7.0,-999.0,58,-99.99,,,-99.99,0.000000,,2013-08-25 08:52:00,
2013-08-25 05:00:00,70.0,54.0,-100.00,SSW,202,7.0,-999.0,57,-99.99,,,-99.99,0.000000,,2013-08-25 09:00:00,
2013-08-25 05:44:00,70.0,54.0,-100.00,SSW,202,7.0,-999.0,57,-99.99,,,-99.99,0.000000,,2013-08-25 09:44:00,
2013-08-25 05:55:00,70.0,54.0,-100.00,SSW,202,7.0,-999.0,57,-99.99,,,-99.99,0.000000,,2013-08-25 09:55:00,
2013-08-25 06:00:00,71.0,54.0,-100.00,SSW,202,6.0,-999.0,55,-99.99,,,-99.99,0.000000,,2013-08-25 10:00:00,
2013-08-25 06:42:00,71.0,54.0,-100.00,SSW,202,6.0,-999.0,55,-99.99,,,-99.99,0.000000,,2013-08-25 10:42:00,
2013-08-25 06:53:00,71.0,54.0,-100.00,SSW,202,6.0,-999.0,55,-99.99,,,-99.99,0.000000,,2013-08-25 10:53:00,
2013-08-25 07:00:00,72.0,53.0,-100.00,SSW,202,7.0,-999.0,52,-99.99,,,-99.99,1.160000,,2013-08-25 11:00:00,
2013-08-25 07:42:00,72.0,53.0,-100.00,SSW,202,7.0,-999.0,52,-99.99,,,-99.99,1.160000,,2013-08-25 11:42:00,
2013-08-25 07:52:00,72.0,53.0,-100.00,SSW,202,7.0,-999.0,52,-99.99,,,-99.99,1.160000,,2013-08-25 11:52:00,
2013-08-25 08:00:00,72.0,54.0,-100.00,SSW,202,8.0,-999.0,52,-99.99,,,-99.99,27.840000,,2013-08-25 12:00:00,
2013-08-25 08:43:00,72.0,54.0,-100.00,SSW,202,8.0,-999.0,52,-99.99,,,-99.99,27.840000,,2013-08-25 12:43:00,
2013-08-25 08:52:00,72.0,54.0,-100.00,SSW,202,8.0,-999.0,52,-99.99,,,-99.99,27.840000,,2013-08-25 12:52:00,
2013-08-25 09:00:00,73.0,55.0,-100.00,SW,225,9.0,-999.0,53,-99.99,,,-99.99,49.880001,,2013-08-25 13:00:00,
2013-08-25 09:42:00,73.0,55.0,-100.00,SW,225,9.0,-999.0,53,-99.99,,,-99.99,49.880001,,2013-08-25 13:42:00,
2013-08-25 09:52:00,73.0,55.0,-100.00,SW,225,9.0,-999.0,53,-99.99,,,-99.99,49.880001,,2013-08-25 13:52:00,
2013-08-25 10:00:00,74.0,58.0,-100.00,SW,225,9.0,-999.0,57,-99.99,,,-99.99,120.639999,,2013-08-25 14:00:00,
2013-08-25 10:42:00,74.0,58.0,-100.00,SW,225,9.0,-999.0,57,-99.99,,,-99.99,120.639999,,2013-08-25 14:42:00,
2013-08-25 10:52:00,74.0,58.0,-100.00,SW,225,9.0,-999.0,57,-99.99,,,-99.99,120.639999,,2013-08-25 14:52:00,
2013-08-25 11:00:00,75.0,61.0,-100.00,SW,225,10.0,-999.0,60,-99.99,,,-99.99,291.160004,,2013-08-25 15:00:00,
2013-08-25 11:44:00,75.0,61.0,-100.00,SW,225,10.0,-999.0,60,-99.99,,,-99.99,291.160004,,2013-08-25 15:44:00,
2013-08-25 11:55:00,75.0,61.0,-100.00,SW,225,10.0,-999.0,60,-99.99,,,-99.99,291.160004,,2013-08-25 15:55:00,
2013-08-25 12:00:00,78.0,63.0,-100.00,SW,225,10.0,-999.0,58,-99.99,,,-99.99,573.039978,,2013-08-25 16:00:00,
2013-08-25 12:44:00,78.0,63.0,-100.00,SW,225,10.0,-999.0,58,-99.99,,,-99.99,573.039978,,2013-08-25 16:44:00,
2013-08-25 12:54:00,78.0,63.0,-100.00,SW,225,10.0,-999.0,58,-99.99,,,-99.99,573.039978,,2013-08-25 16:54:00,
2013-08-25 13:00:00,81.0,64.0,-100.00,SW,225,10.0,-999.0,56,-99.99,,,-99.99,644.960022,,2013-08-25 17:00:00,
2013-08-25 13:43:00,81.0,64.0,-100.00,SW,225,10.0,-999.0,56,-99.99,,,-99.99,644.960022,,2013-08-25 17:43:00,
2013-08-25 13:53:00,81.0,64.0,-100.00,SW,225,10.0,-999.0,56,-99.99,,,-99.99,644.960022,,2013-08-25 17:53:00,
2013-08-25 14:00:00,83.0,65.0,-100.00,SW,225,10.0,-999.0,54,-99.99,,,-99.99,760.960022,,2013-08-25 18:00:00,
2013-08-25 14:43:00,83.0,65.0,-100.00,SW,225,10.0,-999.0,54,-99.99,,,-99.99,760.960022,,2013-08-25 18:43:00,
2013-08-25 14:52:00,83.0,65.0,-100.00,SW,225,10.0,-999.0,54,-99.99,,,-99.99,760.960022,,2013-08-25 18:52:00,
2013-08-25 15:00:00,85.0,66.0,-100.00,SW,225,9.0,-999.0,52,-99.99,,,-99.99,736.599976,,2013-08-25 19:00:00,
2013-08-25 15:42:00,85.0,66.0,-100.00,SW,225,9.0,-999.0,52,-99.99,,,-99.99,736.599976,,2013-08-25 19:42:00,
2013-08-25 15:53:00,85.0,66.0,-100.00,SW,225,9.0,-999.0,52,-99.99,,,-99.99,736.599976,,2013-08-25 19:53:00,
2013-08-25 16:00:00,85.0,66.0,-100.00,SW,225,11.0,-999.0,52,-99.99,,,-99.99,650.760010,,2013-08-25 20:00:00,
2013-08-25 16:43:00,85.0,66.0,-100.00,SW,225,11.0,-999.0,52,-99.99,,,-99.99,650.760010,,2013-08-25 20:43:00,
2013-08-25 16:53:00,85.0,66.0,-100.00,SW,225,11.0,-999.0,52,-99.99,,,-99.99,650.760010,,2013-08-25 20:53:00,
2013-08-25 17:00:00,84.0,65.0,-100.00,SW,225,10.0,-999.0,53,-99.99,,,-99.99,480.239990,,2013-08-25 21:00:00,
2013-08-25 17:43:00,84.0,65.0,-100.00,SW,225,10.0,-999.0,53,-99.99,,,-99.99,480.239990,,2013-08-25 21:43:00,
2013-08-25 17:55:00,84.0,65.0,-100.00,SW,225,10.0,-999.0,53,-99.99,,,-99.99,480.239990,,2013-08-25 21:55:00,
2013-08-25 18:00:00,85.0,65.0,-100.00,SW,225,11.0,-999.0,52,-99.99,,,-99.99,417.600006,,2013-08-25 22:00:00,
2013-08-25 18:43:00,85.0,65.0,-100.00,SW,225,11.0,-999.0,52,-99.99,,,-99.99,417.600006,,2013-08-25 22:43:00,
2013-08-25 18:53:00,85.0,65.0,-100.00,SW,225,11.0,-999.0,52,-99.99,,,-99.99,417.600006,,2013-08-25 22:53:00,
2013-08-25 19:00:00,83.0,65.0,-100.00,SW,225,10.0,-999.0,53,-99.99,,,-99.99,213.440002,,2013-08-25 23:00:00,
2013-08-25 19:43:00,83.0,65.0,-100.00,SW,225,10.0,-999.0,53,-99.99,,,-99.99,213.440002,,2013-08-25 23:43:00,
2013-08-25 19:53:00,83.0,65.0,-100.00,SW,225,10.0,-999.0,53,-99.99,,,-99.99,213.440002,,2013-08-25 23:53:00,
2013-08-25 20:00:00,82.0,64.0,-100.00,SW,225,11.0,-999.0,54,-99.99,,,-99.99,117.160004,,2013-08-26 00:00:00,
2013-08-25 20:42:00,82.0,64.0,-100.00,SW,225,11.0,-999.0,54,-99.99,,,-99.99,117.160004,,2013-08-26 00:42:00,
2013-08-25 20:52:00,82.0,64.0,-100.00,SW,225,11.0,-999.0,54,-99.99,,,-99.99,117.160004,,2013-08-26 00:52:00,
2013-08-25 21:00:00,81.0,64.0,-100.00,SW,225,10.0,-999.0,55,-99.99,,,-99.99,9.280000,,2013-08-26 01:00:00,
2013-08-25 21:42:00,81.0,64.0,-100.00,SW,225,10.0,-999.0,55,-99.99,,,-99.99,9.280000,,2013-08-26 01:42:00,
2013-08-25 21:52:00,81.0,64.0,-100.00,SW,225,10.0,-999.0,55,-99.99,,,-99.99,9.280000,,2013-08-26 01:52:00,
2013-08-25 22:00:00,81.0,64.0,-100.00,SW,225,10.0,-999.0,57,-99.99,,,-99.99,0.000000,,2013-08-26 02:00:00,
2013-08-25 22:42:00,81.0,64.0,-100.00,SW,225,10.0,-999.0,57,-99.99,,,-99.99,0.000000,,2013-08-26 02:42:00,
2013-08-25 22:52:00,81.0,64.0,-100.00,SW,225,10.0,-999.0,57,-99.99,,,-99.99,0.000000,,2013-08-26 02:52:00,
2013-08-25 23:00:00,80.0,66.0,-100.00,SW,225,10.0,-999.0,61,-99.99,,,-99.99,0.000000,,2013-08-26 03:00:00,
2013-08-25 23:44:00,80.0,66.0,-100.00,SW,225,10.0,-999.0,61,-99.99,,,-99.99,0.000000,,2013-08-26 03:44:00,
2013-08-25 23:56:00,80.0,66.0,-100.00,SW,225,10.0,-999.0,61,-99.99,,,-99.99,0.000000,,2013-08-26 03:56:00,